Regional Weather Roundup
Issued by NWS

Home | Current Version | Previous Version | Graphics & Text | Print | Product List | Glossary Off
Versions: 1 2 3 4 5 6 7 8 9 10 11 12 13 14 15 16 17 18 19 20 21 22 23 24 25 26 27 28 29 30 31 32 33 34 35 36 37 38 39 40 41 42 43 44 45 46 47 48 49 50

000
ASUS43 KTOP 111959
RWRKS

WEATHER ROUNDUP FOR KANSAS
NATIONAL WEATHER SERVICE GOODLAND KS
200 PM CST THU FEB 11 2016

NOTE:  "FAIR" INDICATES FEW OR NO CLOUDS BELOW 12,000 FEET WITH NO
SIGNIFICANT WEATHER AND/OR OBSTRUCTIONS TO VISIBILITY.

KSZ001>006-013>018-027>032-041>047-112100-
NORTHWEST KANSAS

CITY           SKY/WX    TMP DP  RH WIND       PRES   REMARKS
GOODLAND       SUNNY     60  29  30 W16       30.08F
HAYS           SUNNY     41  25  52 S8        30.14F
HILL CITY      SUNNY     42  33  70 S9        30.12F
RUSSELL        SUNNY     37  28  70 S8        30.14F
$$

KSZ061>065-074>080-084>089-112100-
SOUTHWEST KANSAS

CITY           SKY/WX    TMP DP  RH WIND       PRES   REMARKS
DODGE CITY     CLOUDY    52  30  43 S14       30.13F
ELKHART          N/A     64  28  25 S8          N/A
GARDEN CITY    SUNNY     59  30  33 SW16G25   30.09F
GREAT BEND     SUNNY     41  27  56 S10       30.14F
LIBERAL        MOSUNNY   57  32  38 SW10      30.15F
$$

KSZ066>073-081>083-090>101-112100-
SOUTHEAST KANSAS

CITY           SKY/WX    TMP DP  RH WIND       PRES   REMARKS
CHANUTE        MOSUNNY   45  23  42 E5        30.20F
COFFEYVILLE    SUNNY     47  25  42 VRB3      30.20F
HUTCHINSON     SUNNY     42  25  50 SW3       30.19F
MEDICINE LODGE   N/A     50  27  40 N5        30.17F
NEWTON         SUNNY     43  23  45 SE5       30.20F
PARSONS        SUNNY     46  24  42 NE7       30.20F
WICHITA INTL   PTSUNNY   44  24  45 CALM      30.18F
WICHITA JABRA  SUNNY     45  25  45 VRB5      30.18F
WINFIELD       SUNNY     50  25  37 VRB3      30.20F
$$

KSZ007>012-019>026-033>040-048>060-102>105-112100-
NORTHEAST KANSAS

CITY           SKY/WX    TMP DP  RH WIND       PRES   REMARKS
CONCORDIA      CLOUDY    28  23  81 S7        30.19F
EMPORIA        MOSUNNY   41  23  48 SE9       30.20F
LAWRENCE       MOSUNNY   37  21  52 E6        30.24F
MANHATTAN      PTSUNNY   35  23  61 E3        30.20F
OLATHE IND     SUNNY     37  21  52 E8        30.23F
OLATHE EXE     SUNNY     36  20  52 E6        30.22F
SALINA         PTSUNNY   35  24  64 CALM      30.21F
TOPEKA BILLARD CLOUDY    37  21  52 E6        30.23F
TOPEKA FORBES  MOSUNNY   39  22  50 E7        30.22F
$$



USA.gov is the U.S. government's official web portal to all federal, state and local government web resources and services.